Regional Weather Roundup
Issued by NWS

Home | Current Version | Previous Version | Graphics & Text | Print | Product List | Glossary On
Versions: 1 2 3 4 5 6 7 8 9 10 11 12 13 14 15 16 17 18 19 20 21 22 23 24 25 26 27 28 29 30 31 32 33 34 35 36 37 38 39 40 41 42 43 44 45 46 47 48 49 50
000
ASUS43 KDTX 272001
RWRMI
MICHIGAN HOURLY REGIONAL WEATHER ROUNDUP
NATIONAL WEATHER SERVICE DETROIT/PONTIAC MI
400 PM EDT THU JUL 27 2017

NOTE: "FAIR" INDICATES FEW OR NO CLOUDS BELOW 12,000 FEET WITH NO
SIGNIFICANT WEATHER AND/OR OBSTRUCTION TO VISIBILITY.

MIZ047>049-052>055-059>063-066>070-074>076-081>083-272100-
SOUTHEAST LOWER MICHIGAN

CITY           SKY/WX    TMP DP  RH WIND       PRES   REMARKS
ADRIAN         SUNNY     86  60  41 VRB5      29.89F
ALMA           SUNNY     80  56  42 E10       29.95F
ANN ARBOR      PTSUNNY   85  66  53 NE7       29.89F
BAD AXE        MOSUNNY   75  62  63 NE10      29.97S
CARO           MOSUNNY   79  62  57 N6        29.95S
DETROIT CITY   MOSUNNY   83  63  50 E9        29.90F
DETROIT        PTSUNNY   85  66  53 E10       29.90F
FLINT          CLOUDY    79  67  66 NE5       29.93F
GROSSE ILE     SUNNY     81  69  66 S8        29.89F
HILLSDALE      PTSUNNY   84  59  42 NE5       29.90F
HOWELL         PTSUNNY   81  66  60 N6        29.92F

CITY           SKY/WX    TMP DP  RH WIND       PRES   REMARKS
JACKSON        PTSUNNY   86  60  41 NE10      29.90F
LAMBERTVILLE   CLOUDY    81  66  60 NE6       29.89F
LANSING        PTSUNNY   81  67  62 NE12      29.93F
LAPEER         CLOUDY    74  67  78 NE7       29.95S
MASON          CLOUDY    81  68  66 NE8G16    29.92F
MONROE         SUNNY     83  65  53 SE5       29.88F
MT. CLEMENS    PTSUNNY   81  69  67 E8        29.91F
PONTIAC        PTSUNNY   81  66  60 NE6G20    29.91F
PORT HOPE        N/A     69  63  81 N8        29.96S
PORT HURON     CLOUDY    73  68  83 N6        29.94S
TRI CITIES     SUNNY     80  61  52 E9        29.96F
MIDLAND        FAIR      80  63  55 E6        29.94F
TROY           PTSUNNY   82  62  50 N5        29.93F
SAGINAW HB     MOSUNNY   77  61  57 NE10      29.95S
$$
MIZ043>046-050>051-056>058-064>065-071>073-077>080-272100-
SOUTHWEST LOWER MICHIGAN

CITY           SKY/WX    TMP DP  RH WIND       PRES   REMARKS
BATTLE CREEK   CLOUDY    82  69  64 NE9       29.91F
BENTON HARBOR  SUNNY     80  69  69 VRB7      29.91S
BIG RAPIDS     PTSUNNY   79  58  48 E5        29.96S
COLDWATER      SUNNY     85  63  47 NE6       29.89F
FREMONT        FAIR      84  55  37 NE8       29.94F HAZE
HOLLAND        PTSUNNY   82  66  58 VRB3      29.93S
GRAND RAPIDS   PTSUNNY   82  69  64 NE9       29.93F
IONIA          CLOUDY    78  67  69 N8        29.93F
KALAMAZOO      PTSUNNY   86  68  54 NE7       29.90F
LUDINGTON      CLOUDY    78  65  64 N13       29.96S
MARSHALL       MOSUNNY   86  63  46 NE5       29.90F
MOUNT PLEASANT MOSUNNY   83  59  43 NE6       29.94F
MUSKEGON       PTSUNNY   88  60  38 N13       29.93F
SOUTH HAVEN    MOSUNNY   80  72  75 N13G18    29.91S
$$
MIZ016>042-272100-
NORTHERN LOWER MICHIGAN

CITY           SKY/WX    TMP DP  RH WIND       PRES   REMARKS
ALPENA         SUNNY     78  60  53 N10       29.99S
BEAVER ISLAND  SUNNY     77  56  47 NW6       30.02F
BELLAIRE       SUNNY     79  59  51 N6        29.99S
CADILLAC       MOSUNNY   82  58  44 NE9       29.98S
CHARLEVOIX     SUNNY     73  62  68 N10       30.04S
FRANKFORT      SUNNY     76  60  56 N12G17    30.00S
GAYLORD        SUNNY     78  56  46 N9        30.01S
GRAYLING       MOSUNNY   79  57  46 N9        29.99S
HARBOR SPRINGS MOSUNNY   79  57  47 N6        29.99S
HOUGHTON LAKE  MOSUNNY   82  56  40 VRB6      29.98S
MANISTEE       SUNNY     79  63  57 NW14      29.97R
OSCODA         SUNNY     75  59  58 NE14      29.97F
PELLSTON       MOSUNNY   79  56  45 N14       30.01S
ROGERS CITY    SUNNY     73  61  67 N3        30.01S
TRAVERSE CITY  MOSUNNY   77  58  51 N8        29.99R
$$
MIZ007>008-015-272100-
EASTERN UPPER MICHIGAN

CITY           SKY/WX    TMP DP  RH WIND       PRES   REMARKS
KINROSS        SUNNY     73  55  53 N14       30.01S
MACKINAC ISLAN SUNNY     78  55  44 N7        30.00S
NEWBERRY       SUNNY     71  48  44 N12G17    30.04S
S. S. MARIE    SUNNY     73  55  53 W13       30.00S
MUNISING         N/A     67  61  81 NE10      30.07S
$$
MIZ004>006-011>014-085-272100-
CENTRAL UPPER MICHIGAN

CITY           SKY/WX    TMP DP  RH WIND       PRES   REMARKS
MANISTIQUE     SUNNY     77  48  36 N14G20    30.02S
ESCANABA       SUNNY     78  56  46 N10G18    30.03S
MENOMINEE      SUNNY     76  61  59 SE9       30.03F
SAWYER-GWINN   SUNNY     72  52  49 NE16      30.09S
$$
MIZ001>003-009>011-084-272100-
WESTERN UPPER MICHIGAN

CITY           SKY/WX    TMP DP  RH WIND       PRES   REMARKS
IRON MOUNTAIN  MOSUNNY   80  55  42 NE12      30.04F
HOUGHTON       MOSUNNY   75  54  47 E7        30.10S
COPPER HARBOR    N/A     61  52  72 CALM      30.09F
IRONWOOD       SUNNY     76  59  55 N9        30.10S
$$

ABBREVIATIONS USED IN REMARKS
   TC - TEMPERATURE IN CELSIUS
  WCI - WIND CHILL INDEX
   HX - HEAT INDEX
  VSB - VISIBILITY




USA.gov is the U.S. government's official web portal to all federal, state and local government web resources and services.